Lapse_Rate
7.5 7.5 7.3 7.1 7.1 7.1 7.1 6.9 6.7 6.5 6.4 6.4 6.3 6.5 6.6 6.7 6.7 6.4 6.5 6.2 6.3 6.3 6.4 6.4 6.2 6.2 6.1 6.1 6.0 5.9 5.8 5.7 5.7 5.8 5.8 5.9 5.8 5.7 5.5 5.2 5.3 5.3 5.2 5.1 5.2 5.8 6.0 5.9 5.9
7.5 7.4 7.3 7.1 7.1 7.0 6.7 6.7 6.5 6.3 6.2 6.2 6.3 6.4 6.4 6.5 6.4 6.4 6.3 6.2 6.0 6.1 6.3 6.3 6.2 6.1 6.0 5.9 6.0 5.9 5.8 5.7 5.7 5.7 5.8 5.8 5.9 5.8 5.7 5.6 5.5 5.3 5.1 5.1 5.6 5.9 5.9 5.9 5.9
7.5 7.3 7.1 6.9 6.8 6.7 6.7 6.6 6.3 6.1 6.0 6.1 6.1 6.2 6.2 6.3 6.3 6.2 6.2 6.2 6.1 6.0 6.1 6.1 5.9 6.2 6.1 5.9 5.9 5.9 5.7 5.7 5.7 5.7 5.7 5.8 5.8 5.8 5.7 5.7 5.5 5.3 5.2 4.9 5.9 5.9 6.2 6.0 6.0
7.3 7.2 6.9 6.8 6.7 6.6 6.5 6.4 6.2 6.0 5.9 5.9 6.0 6.1 6.1 6.0 6.0 6.1 6.1 6.0 6.0 6.1 6.0 6.1 5.8 6.0 6.2 6.1 5.9 5.9 5.9 5.7 5.6 5.6 5.7 5.7 5.7 5.8 5.6 5.7 5.5 5.1 4.9 5.2 5.8 6.0 6.3 6.2 6.1
7.3 7.1 6.8 6.7 6.6 6.5 6.2 6.1 6.1 6.0 5.9 5.9 5.8 5.9 6.0 5.9 5.9 6.1 6.3 6.2 6.1 6.1 6.0 5.9 6.1 6.0 6.0 6.1 6.0 6.0 5.9 5.9 5.7 5.6 5.6 5.7 5.7 5.7 5.7 5.6 5.8 5.6 5.5 5.6 5.8 6.0 6.2 6.2 6.1
7.3 7.1 6.8 6.6 6.4 6.3 6.1 6.1 6.1 6.1 6.0 5.9 5.9 5.9 5.9 6.0 6.1 6.2 6.3 6.4 6.3 6.2 6.2 6.1 6.0 6.0 6.0 5.9 5.9 5.9 5.9 5.9 6.0 5.9 5.9 5.8 5.8 5.6 5.7 5.8 5.9 5.9 5.9 5.9 6.0 6.1 6.1 6.2 6.0
7.3 7.2 6.9 6.6 6.3 6.3 6.4 6.2 6.1 6.1 6.0 5.9 6.0 6.1 6.2 6.2 6.1 6.3 6.4 6.4 6.3 6.1 5.9 6.0 6.1 6.0 5.9 5.9 5.9 5.8 5.9 5.8 6.0 6.1 6.1 5.9 5.8 5.6 5.6 5.8 5.8 5.8 5.9 6.0 6.1 6.1 6.0 6.1 6.1
7.1 7.0 6.8 6.6 6.5 6.5 6.4 6.3 6.3 6.3 6.3 6.1 6.1 6.4 6.3 6.4 6.3 6.2 6.2 6.3 6.2 6.1 6.0 5.9 5.9 6.0 5.9 5.7 5.8 5.8 5.7 5.8 5.8 6.0 6.0 5.9 5.8 5.6 5.5 5.7 5.8 5.8 5.8 5.9 6.1 6.1 6.1 6.0 5.9
6.9 6.9 6.7 6.6 6.5 6.5 6.5 6.4 6.6 6.5 6.4 6.2 6.5 6.4 6.4 6.4 6.5 6.5 6.4 6.5 6.5 6.4 6.4 6.2 6.1 6.0 6.0 6.0 5.8 5.7 5.8 5.7 5.8 5.8 5.8 5.8 5.6 5.7 5.6 5.5 5.7 5.7 5.8 5.9 6.0 6.2 6.1 6.0 5.9
6.9 6.8 6.7 6.5 6.6 6.6 6.7 6.7 6.7 6.7 6.7 6.6 6.7 6.6 6.7 6.7 6.7 6.8 6.7 6.6 6.6 6.6 6.5 6.5 6.3 6.1 6.1 6.2 6.0 5.8 5.7 5.9 5.7 5.7 5.8 5.8 5.8 5.6 5.4 5.4 5.4 5.6 5.8 5.8 6.0 6.0 6.0 6.0 6.0
7.1 7.0 6.9 6.9 6.9 6.9 6.8 6.8 6.8 7.0 7.1 7.2 7.1 6.9 6.6 6.6 6.6 6.8 6.7 6.7 6.6 6.6 6.6 6.4 6.4 6.2 6.1 6.0 6.1 5.9 5.8 5.7 5.7 5.3 5.7 5.7 5.7 5.7 5.5 5.5 5.4 5.3 5.5 5.7 5.9 5.9 6.0 5.9 5.9
7.1 7.1 7.0 7.1 7.2 7.2 7.0 7.0 7.0 7.1 7.2 7.3 7.2 7.1 7.0 7.0 6.8 6.7 6.7 6.6 6.4 6.4 6.6 6.3 6.2 6.1 6.1 5.9 5.9 6.0 5.9 5.8 5.5 5.4 5.4 5.5 5.5 5.7 5.6 5.6 5.6 5.4 5.3 5.5 5.7 5.9 5.9 5.8 5.8
7.2 7.2 7.2 7.3 7.4 7.4 7.2 7.1 7.1 7.4 7.5 7.4 7.3 7.2 7.3 7.1 7.1 6.9 6.8 6.8 6.7 6.5 6.3 6.3 6.0 6.1 6.0 5.9 5.7 5.8 5.9 5.8 5.8 5.6 5.7 5.8 5.7 5.6 6.2 5.8 5.6 5.4 5.5 5.5 5.5 5.9 6.0 5.8 5.8
7.4 7.4 7.4 7.4 7.5 7.6 7.7 7.4 7.1 7.3 7.5 7.3 7.2 7.3 7.1 7.0 6.9 6.7 6.6 6.6 6.6 6.4 6.1 6.1 6.0 5.9 6.0 5.8 5.7 5.6 5.6 5.8 5.7 5.8 5.6 5.6 5.7 5.7 5.3 5.4 5.1 5.6 5.6 5.6 5.6 5.8 6.0 5.9 5.7
7.5 7.4 7.4 7.3 7.3 7.6 7.8 7.9 7.1 7.1 7.7 7.5 7.3 7.2 6.9 6.7 6.6 6.5 6.4 6.3 6.3 6.2 6.2 6.0 5.8 5.5 5.3 5.5 5.5 5.4 5.3 5.3 5.5 5.6 5.6 5.5 5.6 6.0 5.6 5.7 5.5 5.4 6.0 5.4 5.6 5.8 6.0 6.0 5.9
7.5 7.4 7.5 7.3 7.5 7.7 7.5 8.5 7.3 7.1 7.6 7.5 7.3 7.1 6.9 6.7 6.7 6.6 6.1 5.7 5.9 5.9 6.0 6.0 5.8 5.5 5.2 5.0 5.0 5.1 5.1 5.1 5.2 5.3 5.5 5.4 5.5 5.8 5.3 5.6 5.2 4.8 5.4 5.7 5.6 5.6 6.2 6.2 5.7
7.6 7.5 7.4 7.3 7.5 7.5 7.2 8.4 8.0 7.1 7.7 7.4 7.3 6.9 6.8 6.8 6.8 6.5 6.2 5.8 5.7 5.8 5.9 6.0 5.9 5.7 5.3 5.1 5.1 5.0 5.1 5.1 5.1 5.2 5.3 5.4 5.4 5.5 5.5 5.2 5.3 5.3 5.8 5.7 5.4 5.0 5.9 6.1 5.8
7.4 7.4 7.4 7.2 7.2 7.5 7.4 8.4 8.3 7.9 7.7 7.5 7.2 7.0 7.0 6.9 6.7 6.5 6.3 6.1 6.1 6.1 6.2 6.2 6.1 6.0 5.6 5.3 5.1 5.2 5.2 5.2 5.2 5.0 5.1 5.1 5.2 5.3 5.2 5.3 5.3 5.0 5.1 5.6 5.5 5.3 5.7 5.7 6.0
7.3 7.3 7.2 7.2 7.0 7.2 7.4 8.3 8.3 8.1 7.6 7.4 7.1 7.0 6.9 6.8 6.6 6.5 6.4 6.3 6.3 6.5 6.5 6.6 6.6 6.3 6.1 6.1 5.7 5.2 5.2 5.3 5.3 5.3 5.1 5.1 5.2 5.1 5.1 5.1 5.4 5.5 5.5 5.4 5.3 5.2 5.1 5.3 5.7
7.2 7.1 6.9 6.9 6.9 6.8 7.6 8.2 8.4 7.8 7.3 7.2 7.1 7.0 6.9 6.8 6.8 6.7 6.4 6.2 6.1 6.3 6.3 6.3 6.5 6.4 6.3 6.0 6.1 5.9 5.8 5.2 5.2 5.3 5.5 5.5 5.4 5.4 5.3 5.1 5.3 5.4 5.8 5.5 5.1 5.0 5.2 4.8 5.0
7.0 6.9 6.7 6.6 6.9 7.1 7.2 7.5 8.4 7.7 7.2 7.1 7.0 6.9 6.8 6.8 6.6 6.3 6.2 6.1 6.1 6.4 6.7 6.7 6.6 6.4 6.1 6.2 5.8 5.8 6.0 6.2 5.9 5.6 5.7 5.8 5.5 5.3 5.4 5.3 5.3 5.3 5.2 5.8 5.4 5.1 5.3 4.7 5.2
6.8 6.7 6.6 6.5 6.3 6.0 6.5 5.6 8.1 7.6 7.2 7.1 6.9 7.0 6.8 6.8 6.5 6.2 6.1 6.2 6.6 6.6 6.6 6.6 6.6 6.3 6.2 6.1 5.8 5.7 5.7 6.0 6.3 6.3 6.1 5.9 5.9 5.7 5.7 5.5 5.5 5.4 5.3 4.9 5.0 5.4 5.1 5.0 4.7
6.7 6.6 6.6 6.6 6.5 6.0 6.0 5.3 7.9 7.7 7.2 7.1 7.1 6.9 6.8 6.6 6.3 6.1 6.1 6.3 6.5 6.4 6.4 6.3 6.3 6.3 6.2 6.3 6.3 6.3 5.8 5.7 6.1 6.2 6.2 6.3 6.2 6.3 6.2 6.1 6.2 5.8 5.6 5.0 5.0 4.7 5.6 5.5 5.5
6.4 6.6 6.7 6.6 6.0 4.6 5.7 5.6 7.3 7.7 7.2 7.2 7.1 6.7 6.6 6.3 5.9 6.0 6.2 6.4 6.5 6.4 6.1 6.2 6.1 5.8 5.8 6.0 6.0 6.2 6.4 5.7 5.8 6.1 6.3 6.4 6.6 6.6 6.6 6.6 6.5 6.2 6.0 5.7 5.5 5.2 5.1 5.1 4.8
6.6 6.6 6.3 5.0 4.6 5.2 5.4 5.0 7.8 7.6 7.0 7.1 6.9 6.6 6.4 6.0 5.8 6.1 6.4 6.3 6.6 6.9 6.8 6.9 6.6 6.7 6.2 6.2 6.3 6.2 6.2 6.0 5.8 6.0 6.3 6.4 6.5 6.7 6.9 6.9 6.8 6.5 6.3 6.4 5.8 5.6 5.7 5.3 5.0
6.5 6.4 6.3 4.5 4.4 4.8 5.0 4.9 7.8 7.6 7.3 7.1 6.6 6.3 6.1 6.0 6.1 6.4 6.4 6.3 6.0 6.7 7.0 7.1 7.0 6.9 6.5 6.4 6.5 6.7 6.7 6.1 5.9 6.0 6.3 6.4 6.5 6.5 6.7 6.9 6.9 6.7 6.7 6.1 6.1 6.1 5.7 5.6 5.3
6.2 6.2 6.1 6.1 5.0 4.2 4.8 5.6 7.0 7.4 7.5 6.7 6.4 6.2 6.3 6.3 6.4 6.5 6.1 5.8 5.9 6.6 7.0 7.2 7.2 7.1 6.8 6.6 6.6 6.9 6.9 6.4 6.4 6.2 6.8 6.5 6.4 6.2 6.3 6.7 6.9 6.6 6.3 6.3 6.3 5.8 6.0 5.8 5.4
6.6 6.2 6.2 5.9 4.3 3.9 4.1 4.5 6.5 7.6 6.8 6.5 6.3 6.2 6.4 6.3 6.4 6.2 5.9 5.8 5.8 6.1 6.5 6.8 7.0 7.1 6.9 6.8 7.1 6.9 6.6 6.6 6.1 6.1 6.1 6.0 6.4 6.2 6.1 6.5 6.8 6.8 6.6 6.5 6.1 6.2 5.9 5.9 5.9
6.6 6.3 6.1 6.0 5.9 4.5 3.6 4.5 5.9 7.2 6.5 6.3 6.0 6.0 6.2 6.2 6.3 6.2 6.5 6.3 5.7 6.0 6.3 6.5 6.9 6.8 7.1 6.9 6.8 6.8 6.6 6.4 5.9 5.9 5.7 6.0 6.4 6.2 6.1 6.5 6.5 6.5 6.4 6.3 6.1 5.8 5.5 6.1 5.9
6.3 6.3 6.2 6.0 5.5 5.2 4.4 4.0 6.1 7.0 6.3 6.0 6.1 6.1 6.3 6.3 6.2 6.2 6.2 6.0 5.8 5.8 6.0 6.3 6.4 6.5 6.7 6.8 6.5 6.7 6.8 6.5 6.4 6.3 5.6 6.0 6.1 5.6 6.1 6.3 6.3 6.1 6.2 6.2 6.3 6.3 5.9 5.9 5.6
Wind_Speed
8 4 3 3 3 3 1 0 1 3 3 1 3 1 5 3 3 4 3 7 9 2 12 14 14 16 14 11 15 12 13 12 12 13 13 14 14 14 14 14 11 12 13 14 15 15 14 12 11
4 1 3 2 3 2 1 2 2 1 3 6 2 1 3 3 3 2 2 12 9 3 11 13 14 13 16 12 13 14 13 14 12 11 12 13 13 13 13 13 11 10 13 15 15 13 12 11 11
2 4 3 4 3 2 3 1 2 3 4 4 2 3 1 1 3 2 5 12 11 1 8 12 14 14 14 15 15 16 15 14 15 14 15 14 14 13 12 11 10 11 13 12 17 15 12 9 9
2 3 4 3 2 1 1 1 3 4 3 6 2 2 2 0 1 3 7 10 9 3 4 8 14 15 15 16 15 15 16 15 15 16 14 15 15 14 14 12 13 15 14 12 14 14 10 7 6
3 2 4 4 1 1 1 2 4 2 1 3 5 1 3 2 3 4 6 8 9 8 8 8 12 15 15 16 15 15 16 15 16 17 15 14 13 14 14 17 13 12 11 11 12 10 8 7 6
3 2 4 3 2 1 0 3 3 2 2 7 2 5 3 4 4 5 5 8 7 7 10 8 7 11 18 17 16 16 15 16 16 18 17 14 15 15 15 16 14 11 10 9 9 10 7 6 7
5 3 3 3 2 2 1 4 2 3 4 2 3 4 3 1 5 6 5 5 7 8 7 8 7 7 12 19 19 17 17 18 16 17 17 15 15 17 16 14 12 13 12 10 10 9 9 7 7
4 4 3 1 2 2 2 4 2 2 4 4 2 3 2 1 8 8 8 9 6 7 7 7 9 7 7 14 21 21 20 19 18 18 16 15 18 18 15 13 12 13 13 12 11 9 9 9 8
2 4 2 4 4 1 2 4 2 1 3 3 3 3 4 6 6 7 6 6 6 5 7 8 7 9 7 7 13 21 22 21 22 20 18 17 17 16 15 13 14 13 13 13 12 11 10 9 9
5 4 4 2 1 2 2 2 2 2 2 3 4 5 6 6 8 9 8 8 7 7 8 6 6 7 8 6 5 10 15 15 15 15 16 16 15 14 16 15 16 14 14 13 13 13 13 10 10
2 3 2 1 2 1 3 4 1 2 4 7 3 4 6 7 10 9 8 7 8 6 6 7 6 7 7 6 5 4 5 9 15 14 17 15 12 11 14 13 15 14 15 13 13 14 9 10 10
5 1 1 1 2 3 3 4 4 5 6 0 6 7 7 11 11 11 13 12 10 7 10 8 6 6 7 6 6 6 4 6 7 12 12 13 10 10 10 11 12 15 14 11 10 9 9 10 10
4 2 2 3 5 4 3 5 5 10 11 9 8 7 10 11 13 12 11 12 11 9 10 9 7 7 6 6 6 6 5 6 8 5 8 12 8 7 8 10 12 12 14 13 11 10 9 11 10
1 2 5 2 4 1 3 3 2 3 0 7 7 12 12 10 11 10 11 13 10 8 8 8 7 7 5 6 7 5 7 8 7 6 7 4 6 5 2 2 3 6 12 12 12 10 9 8 10
1 2 2 2 4 4 5 2 7 4 3 9 12 10 11 10 8 9 10 11 11 10 6 7 7 5 6 7 7 5 8 8 6 5 7 9 8 8 7 8 9 2 6 9 11 10 10 7 8
4 4 4 2 5 2 3 9 6 1 6 13 12 9 9 9 7 8 7 7 5 5 6 4 4 6 6 5 5 5 7 7 6 6 7 8 11 14 11 8 9 16 6 8 6 6 7 8 7
6 1 2 8 3 1 3 10 6 2 5 11 9 9 8 9 5 4 3 2 4 4 5 6 4 3 4 5 4 5 6 4 6 7 8 12 12 14 13 8 10 16 12 6 4 3 8 8 7
1 1 2 4 3 1 4 19 20 10 4 9 9 7 6 6 3 2 2 2 3 3 3 3 3 1 1 1 1 3 4 4 6 7 8 14 13 13 12 11 12 14 8 8 7 7 4 8 9
5 3 3 4 3 5 4 14 23 15 4 5 5 5 5 3 3 5 3 4 5 3 8 7 6 5 2 1 2 4 6 4 4 4 9 13 14 17 13 7 8 10 10 11 12 6 9 6 8
2 2 4 5 3 3 4 18 13 4 3 3 4 4 4 2 3 4 5 5 5 7 9 8 9 7 6 3 3 3 4 6 5 4 6 12 13 14 12 11 10 11 9 11 12 12 6 3 6
2 3 2 4 6 0 7 7 5 4 3 3 5 5 4 5 6 7 7 8 9 11 11 11 11 10 9 9 5 4 2 2 4 6 6 8 14 14 14 12 9 10 9 9 11 14 11 9 3
1 4 1 3 4 3 5 5 7 4 8 4 5 3 5 6 6 6 9 12 13 13 13 10 10 11 9 9 9 14 10 9 8 8 6 7 14 13 15 15 13 12 8 12 11 11 12 15 11
2 2 1 2 3 3 2 2 7 3 3 3 4 5 6 7 7 10 12 13 13 13 12 12 12 11 11 10 11 11 15 10 6 7 9 9 11 12 15 15 11 11 8 9 9 12 9 8 8
3 3 4 3 2 2 1 1 5 3 4 2 4 7 7 7 8 9 11 11 12 11 12 11 12 12 13 12 12 15 17 14 10 9 9 8 10 9 12 13 11 9 9 9 9 8 7 7 7
2 4 3 5 4 4 3 1 11 5 4 4 8 12 10 7 9 12 12 13 13 13 13 11 13 13 13 13 14 15 17 18 17 13 11 11 10 8 12 13 12 8 8 8 7 7 8 7 7
2 2 4 5 2 4 0 6 5 5 5 7 8 9 8 11 10 12 12 12 13 13 13 13 13 14 13 12 13 12 15 11 12 13 10 11 12 11 13 11 12 12 10 7 6 5 5 6 4
3 2 0 4 1 2 3 6 9 4 3 3 8 8 12 13 15 13 13 12 13 13 12 12 12 13 12 11 9 10 11 14 14 14 13 9 10 10 13 12 12 11 10 8 8 5 5 4 3
2 6 3 2 1 5 5 5 7 7 9 9 10 14 15 12 14 11 13 12 13 12 10 11 11 10 9 8 7 7 11 13 10 14 15 14 12 13 13 12 10 10 10 10 8 7 7 7 4
2 1 4 3 3 4 5 5 5 7 7 7 16 18 12 12 11 14 12 12 12 12 10 9 9 9 7 7 6 8 9 10 13 11 12 14 14 14 14 14 12 11 12 10 10 9 10 9 8
2 5 6 4 4 4 2 7 6 5 7 20 22 17 11 9 11 13 11 12 11 11 9 9 9 7 6 3 4 5 5 10 9 10 12 13 13 13 13 12 14 11 9 10 11 10 9 11 11
Wind_Direction
348 26 75 43 71 61 87 113 278 7 355 28 288 350 90 82 37 96 114 24 355 284 189 189 191 172 186 182 172 181 171 175 179 167 160 163 165 159 153 152 159 155 144 138 130 113 113 124 121
334 83 53 83 89 112 197 276 109 10 333 304 224 348 45 79 48 48 7 350 342 309 185 189 195 189 179 192 194 185 182 186 179 174 171 167 160 157 157 162 169 165 145 139 120 122 121 124 126
134 34 80 88 97 160 156 268 293 320 329 11 56 34 44 59 37 33 349 341 338 239 205 200 198 195 195 190 202 184 196 195 177 194 188 181 172 170 170 165 156 144 138 131 122 122 121 124 123
54 22 51 75 111 210 133 294 340 340 336 38 0 66 305 64 64 342 341 358 17 20 231 227 216 202 199 203 206 201 200 205 194 198 183 184 182 175 163 154 136 134 132 136 124 121 127 130 135
36 55 68 79 91 149 237 350 308 10 28 338 350 348 300 325 29 39 16 8 10 4 349 283 253 221 213 209 209 214 200 205 209 199 196 196 192 186 165 142 140 136 137 128 126 131 143 144 152
53 87 69 150 212 222 225 354 308 11 358 323 11 331 276 348 35 346 359 353 347 339 337 339 302 263 221 220 214 214 213 214 222 205 195 196 195 188 163 150 150 151 149 146 149 152 160 159 164
104 78 126 133 189 266 187 341 5 344 316 327 310 300 290 280 7 343 340 340 338 334 325 327 325 305 252 224 219 216 218 221 220 209 202 197 195 185 164 169 175 168 165 163 164 165 164 164 171
94 92 104 107 182 242 17 345 266 211 273 300 221 244 291 317 339 338 337 330 327 314 313 322 314 308 292 239 224 220 226 228 227 217 211 208 192 175 176 184 193 179 169 170 164 167 166 160 162
109 65 103 177 172 291 11 5 321 355 292 310 255 237 257 307 336 349 340 334 336 323 303 307 306 301 301 271 239 222 222 236 237 232 221 208 199 182 173 184 188 180 175 172 167 164 160 145 147
62 82 183 172 207 257 297 220 305 329 287 273 283 269 294 320 328 321 311 308 307 303 304 291 294 291 299 292 265 245 229 224 230 229 220 216 202 181 165 184 184 179 173 170 169 160 142 142 149
23 106 158 252 221 311 310 309 279 253 289 223 237 286 293 286 299 295 284 254 276 292 288 289 285 278 276 282 285 270 250 243 225 216 216 209 192 185 170 178 183 181 173 171 170 151 149 150 148
92 67 152 285 56 351 287 309 281 203 241 54 259 267 287 294 297 293 291 287 278 268 270 278 271 275 264 264 267 259 238 238 241 238 206 185 191 192 184 176 173 172 170 162 150 148 148 146 143
61 335 297 306 289 245 292 250 248 261 271 286 288 290 281 288 288 288 276 279 277 273 273 263 280 254 260 260 252 259 251 242 240 226 207 195 194 192 193 170 174 162 160 156 152 150 149 146 138
233 261 286 299 314 246 282 279 18 263 198 320 321 302 298 290 295 298 302 295 294 279 274 283 279 282 258 240 244 238 237 241 238 217 192 187 163 161 139 110 128 123 159 155 154 152 147 142 138
190 47 359 50 11 347 316 271 216 244 307 305 303 300 301 300 307 289 289 293 298 303 304 299 299 291 261 250 245 241 237 228 217 204 173 165 146 131 131 121 104 18 118 141 143 139 137 132 130
46 54 18 337 351 19 25 281 183 193 352 314 311 310 309 311 314 317 310 299 315 313 340 327 321 322 305 275 263 252 241 231 212 171 152 172 171 157 149 144 147 148 164 128 143 143 141 137 140
9 135 2 320 37 354 56 280 240 334 307 295 303 301 308 312 350 4 347 23 72 74 51 52 47 21 323 308 271 251 240 226 219 178 171 181 179 174 167 161 160 161 149 148 148 169 150 143 133
241 23 262 246 308 359 255 269 285 303 262 280 291 286 306 315 314 305 307 326 16 39 24 1 351 34 95 316 291 236 232 226 220 204 184 179 166 171 167 163 165 155 152 139 133 160 104 145 135
116 137 259 255 273 306 220 281 289 309 287 282 266 289 310 321 270 263 290 304 327 310 333 329 312 299 260 196 192 234 237 211 212 197 204 192 173 173 166 160 158 159 164 155 143 117 131 118 134
117 153 261 281 256 302 354 299 305 286 264 253 274 298 289 304 293 285 317 315 312 294 298 299 292 281 259 243 226 199 200 212 205 184 189 196 176 173 174 167 169 169 154 151 155 140 129 132 174
210 191 225 251 324 128 303 291 336 320 315 286 265 267 249 243 269 283 302 307 317 316 311 300 293 287 269 247 242 246 213 141 188 198 194 194 175 176 171 173 170 172 168 167 165 155 148 157 178
249 193 248 300 23 292 10 279 300 321 312 283 280 243 262 270 280 283 296 311 310 307 305 285 276 281 277 249 247 233 227 213 202 203 189 190 180 174 175 174 172 173 173 175 187 176 181 155 167
175 128 354 65 106 7 6 81 270 298 323 298 331 298 291 275 273 289 293 295 296 297 294 289 284 277 271 260 247 241 233 231 208 184 179 192 190 178 178 172 174 175 174 170 181 185 180 184 154
154 115 69 67 87 15 203 157 267 251 201 295 305 296 284 292 295 278 289 292 294 294 288 285 283 277 266 248 239 238 240 226 203 185 182 189 188 171 183 176 171 182 175 170 176 173 183 173 158
106 60 343 354 6 244 172 282 254 272 251 242 281 291 301 295 289 301 303 304 296 294 286 291 293 283 274 257 235 228 228 223 211 198 198 182 184 176 180 176 170 168 172 164 156 159 180 169 165
69 142 149 215 256 283 30 234 249 218 283 262 280 272 288 297 284 289 296 294 295 295 295 302 294 283 285 282 267 238 225 218 217 203 190 200 186 178 169 176 177 172 164 143 158 152 161 150 139
151 72 165 99 194 295 236 284 281 308 6 336 306 312 303 299 303 303 303 295 299 290 297 302 293 283 283 275 255 228 221 221 215 205 177 191 182 165 164 166 165 161 139 136 140 132 115 123 118
152 147 77 25 304 276 280 270 235 304 306 311 313 313 307 297 302 308 307 300 294 286 287 296 286 279 295 313 260 234 224 215 209 172 174 174 165 154 153 150 146 135 132 141 133 118 117 130 107
129 172 61 113 153 208 301 242 215 256 277 302 312 319 310 306 296 310 307 303 299 289 297 304 308 325 317 341 324 235 216 199 173 170 166 160 153 150 149 145 135 134 134 137 129 125 122 112 123
178 181 150 147 219 228 233 268 221 304 312 316 316 319 314 294 292 316 303 302 308 312 309 314 317 312 318 11 13 25 135 141 144 144 147 144 141 143 139 136 125 119 115 129 135 128 128 132 136